Back to catalog

ARIANE 3 R/B

AliveHEO
NORAD 15562·ROCKET BODY·🇫🇷 France

Launched Feb 8, 1985 from Guiana Space Centre

Loading…

Next Passes (next 24 hours)

TLE

FreshSource: Space-Track

Epoch: Sep 14, 2026, 03:20 UTC

1 15562U 85015C   26257.13945944  .00000845  00000-0  57088-3 0  9997
2 15562   6.6366 125.4762 6610091 313.8421   7.7646  3.12035838368190

Track ARIANE 3 R/B in real time with AllMySat

Download on the App Store